When you browse on this site, cookies collect data to enhance your experience and personalize the content and advertising you see.
Visit our Privacy Policy to learn more. By continuing to use the site, you agree to this use of cookies and data.
  • In Portugal
  • List of Countries
  • For 7 days
  • Water Temperature
  • Satellite Maps
  • Weather Map
  • Weather Widgets
  • user-avatar
    Login

    Hourly Weather Anielewo

    Today, 24 May, Friday

    Time Temperature Precipitation Wind Pressure Humidity
    00:00 +9°C° 0 mm 2 mps 753 mmHg 80%
    01:00 +8°C° 0 mm 2 mps 752 mmHg 81%
    02:00 +8°C° 0 mm 2 mps 752 mmHg 82%
    03:00 +7°C° 0 mm 2 mps 752 mmHg 82%
    04:00 +7°C° 0 mm 2 mps 752 mmHg 83%
    05:00 +9°C° 0 mm 2 mps 752 mmHg 80%
    06:00 +10°C° 0 mm 2 mps 752 mmHg 76%
    07:00 +13°C° 0 mm 2 mps 752 mmHg 72%
    08:00 +14°C° 0 mm 2 mps 752 mmHg 68%
    09:00 +16°C° 0 mm 2 mps 752 mmHg 63%
    10:00 +17°C° 0 mm 2 mps 752 mmHg 58%
    11:00 +18°C° 0 mm 2 mps 752 mmHg 56%
    12:00 +19°C° 0 mm 2 mps 751 mmHg 53%
    13:00 +19°C° 0 mm 2 mps 751 mmHg 51%
    14:00 +20°C° 0 mm 2 mps 751 mmHg 51%
    15:00 +20°C° 0 mm 2 mps 751 mmHg 51%
    16:00 +20°C° 0 mm 2 mps 750 mmHg 51%
    17:00 +19°C° 0 mm 2 mps 750 mmHg 56%
    18:00 +18°C° 0 mm 2 mps 750 mmHg 61%
    19:00 +16°C° 0 mm 1 mps 750 mmHg 66%
    20:00 +15°C° 0 mm 2 mps 749 mmHg 67%
    21:00 +14°C° 0 mm 2 mps 749 mmHg 67%
    22:00 +13°C° 0 mm 2 mps 749 mmHg 68%
    23:00 +13°C° 0 mm 2 mps 749 mmHg 69%

    Tomorrow, 25 May, Saturday

    Time Temperature Precipitation Wind Pressure Humidity
    00:00 +12°C° 0 mm 2 mps 749 mmHg 70%
    01:00 +12°C° 0 mm 2 mps 749 mmHg 71%
    02:00 +11°C° 0 mm 3 mps 749 mmHg 72%
    03:00 +10°C° 0 mm 3 mps 749 mmHg 74%
    04:00 +10°C° 0 mm 3 mps 749 mmHg 75%
    05:00 +11°C° 0 mm 3 mps 749 mmHg 77%
    06:00 +13°C° 0 mm 3 mps 749 mmHg 78%
    07:00 +14°C° 0 mm 3 mps 749 mmHg 80%
    08:00 +15°C° 0 mm 4 mps 749 mmHg 76%
    09:00 +18°C° 0 mm 4 mps 750 mmHg 72%
    10:00 +19°C° 0 mm 4 mps 750 mmHg 67%
    11:00 +19°C° 0 mm 5 mps 750 mmHg 66%
    12:00 +19°C° 0 mm 5 mps 750 mmHg 64%
    13:00 +20°C° 0 mm 5 mps 750 mmHg 62%
    14:00 +19°C° 0 mm 5 mps 749 mmHg 63%
    15:00 +19°C° 0 mm 5 mps 749 mmHg 63%
    16:00 +19°C° 0 mm 5 mps 749 mmHg 63%
    17:00 +18°C° 0 mm 4 mps 749 mmHg 67%
    18:00 +17°C° 0 mm 3 mps 749 mmHg 70%
    19:00 +16°C° 0 mm 2 mps 750 mmHg 74%
    20:00 +15°C° 0 mm 2 mps 750 mmHg 77%
    21:00 +14°C° 0 mm 2 mps 750 mmHg 80%
    22:00 +12°C° 0 mm 2 mps 750 mmHg 84%
    23:00 +12°C° 0 mm 2 mps 750 mmHg 86%

    Day after tomorrow, 26 May, Sunday

    Time Temperature Precipitation Wind Pressure Humidity
    00:00 +10°C° 0 mm 2 mps 750 mmHg 89%
    01:00 +9°C° 0 mm 2 mps 750 mmHg 92%
    02:00 +9°C° 0 mm 2 mps 750 mmHg 92%
    03:00 +8°C° 0 mm 2 mps 750 mmHg 92%
    04:00 +8°C° 0 mm 2 mps 750 mmHg 92%
    05:00 +10°C° 0 mm 3 mps 750 mmHg 87%
    06:00 +12°C° 0 mm 3 mps 750 mmHg 82%
    07:00 +13°C° 0 mm 4 mps 750 mmHg 77%
    08:00 +15°C° 0 mm 4 mps 750 mmHg 74%
    09:00 +16°C° 0 mm 5 mps 750 mmHg 70%
    10:00 +17°C° 0 mm 6 mps 750 mmHg 66%
    11:00 +19°C° 0.1 mm 6 mps 749 mmHg 65%
    12:00 +19°C° 0.1 mm 6 mps 749 mmHg 63%
    13:00 +20°C° 0.1 mm 6 mps 749 mmHg 62%
    14:00 +20°C° 0 mm 6 mps 749 mmHg 61%
    15:00 +20°C° 0 mm 6 mps 748 mmHg 60%
    16:00 +20°C° 0 mm 6 mps 748 mmHg 59%
    17:00 +19°C° 0 mm 5 mps 748 mmHg 64%
    18:00 +18°C° 0 mm 4 mps 748 mmHg 69%
    19:00 +17°C° 0 mm 3 mps 748 mmHg 74%
    20:00 +16°C° 0 mm 3 mps 748 mmHg 77%
    21:00 +14°C° 0 mm 3 mps 748 mmHg 80%
    22:00 +14°C° 0 mm 2 mps 749 mmHg 83%
    23:00 +12°C° 0 mm 3 mps 749 mmHg 85%

    27 May, Monday

    Time Temperature Precipitation Wind Pressure Humidity
    00:00 +12°C° 0 mm 3 mps 749 mmHg 87%
    01:00 +12°C° 0 mm 3 mps 748 mmHg 89%
    02:00 +11°C° 0 mm 3 mps 748 mmHg 90%
    03:00 +11°C° 0 mm 3 mps 748 mmHg 91%
    04:00 +11°C° 0 mm 3 mps 748 mmHg 91%
    05:00 +13°C° 0 mm 4 mps 747 mmHg 86%
    06:00 +15°C° 0 mm 4 mps 747 mmHg 81%
    07:00 +17°C° 0 mm 5 mps 747 mmHg 76%
    08:00 +19°C° 0 mm 6 mps 747 mmHg 71%
    09:00 +20°C° 0 mm 6 mps 747 mmHg 67%
    10:00 +22°C° 0 mm 7 mps 747 mmHg 62%
    11:00 +22°C° 0.3 mm 7 mps 747 mmHg 62%
    12:00 +23°C° 0.3 mm 7 mps 747 mmHg 63%
    13:00 +23°C° 0.3 mm 7 mps 747 mmHg 63%
    14:00 +23°C° 0.5 mm 6 mps 747 mmHg 66%
    15:00 +22°C° 0.5 mm 5 mps 746 mmHg 69%
    16:00 +22°C° 0.5 mm 5 mps 746 mmHg 72%
    17:00 +21°C° 0.2 mm 4 mps 747 mmHg 77%
    18:00 +20°C° 0.2 mm 3 mps 747 mmHg 81%
    19:00 +19°C° 0.2 mm 2 mps 747 mmHg 86%
    20:00 +17°C° 0 mm 2 mps 747 mmHg 86%
    21:00 +16°C° 0 mm 2 mps 747 mmHg 87%
    22:00 +15°C° 0 mm 2 mps 748 mmHg 87%
    23:00 +14°C° 0 mm 2 mps 748 mmHg 88%

    28 May, Tuesday

    Time Temperature Precipitation Wind Pressure Humidity
    00:00 +12°C° 0 mm 3 mps 748 mmHg 90%
    01:00 +11°C° 0 mm 3 mps 748 mmHg 91%
    02:00 +11°C° 0 mm 3 mps 747 mmHg 92%
    03:00 +11°C° 0 mm 3 mps 747 mmHg 93%
    04:00 +11°C° 0 mm 3 mps 747 mmHg 94%
    05:00 +12°C° 0 mm 3 mps 747 mmHg 91%
    06:00 +13°C° 0 mm 4 mps 747 mmHg 88%
    07:00 +14°C° 0 mm 4 mps 746 mmHg 85%
    08:00 +14°C° 0.2 mm 4 mps 746 mmHg 84%
    09:00 +15°C° 0.2 mm 4 mps 746 mmHg 84%
    10:00 +15°C° 0.2 mm 4 mps 746 mmHg 83%
    11:00 +15°C° 1.1 mm 4 mps 745 mmHg 86%
    12:00 +15°C° 1.1 mm 5 mps 745 mmHg 88%
    13:00 +15°C° 1.1 mm 5 mps 744 mmHg 90%
    14:00 +15°C° 0.5 mm 5 mps 744 mmHg 91%
    15:00 +15°C° 0.5 mm 5 mps 744 mmHg 92%
    16:00 +15°C° 0.5 mm 5 mps 743 mmHg 93%
    17:00 +15°C° 0.1 mm 5 mps 743 mmHg 93%
    18:00 +15°C° 0.1 mm 5 mps 743 mmHg 93%
    19:00 +15°C° 0.1 mm 5 mps 743 mmHg 94%
    20:00 +15°C° 0.4 mm 5 mps 742 mmHg 95%
    21:00 +15°C° 0.4 mm 4 mps 742 mmHg 95%
    22:00 +14°C° 0.4 mm 4 mps 742 mmHg 96%
    23:00 +14°C° 0.6 mm 4 mps 742 mmHg 97%

    29 May, Wednesday

    Time Temperature Precipitation Wind Pressure Humidity
    00:00 +14°C° 0.6 mm 4 mps 742 mmHg 97%
    01:00 +14°C° 0.6 mm 3 mps 742 mmHg 97%
    02:00 +14°C° 0.5 mm 3 mps 742 mmHg 97%
    03:00 +13°C° 0.5 mm 3 mps 742 mmHg 97%
    04:00 +14°C° 0.5 mm 2 mps 742 mmHg 98%
    05:00 +14°C° 0.2 mm 2 mps 742 mmHg 97%
    06:00 +14°C° 0.2 mm 2 mps 743 mmHg 97%
    07:00 +14°C° 0.2 mm 2 mps 743 mmHg 96%
    08:00 +13°C° 0.1 mm 3 mps 743 mmHg 95%
    09:00 +13°C° 0.1 mm 3 mps 744 mmHg 94%
    10:00 +14°C° 0.1 mm 3 mps 744 mmHg 93%
    11:00 +14°C° 0.1 mm 3 mps 745 mmHg 91%
    12:00 +14°C° 0.1 mm 3 mps 745 mmHg 89%
    13:00 +16°C° 0.1 mm 2 mps 746 mmHg 87%
    14:00 +16°C° 0.2 mm 2 mps 746 mmHg 89%
    15:00 +16°C° 0.2 mm 3 mps 747 mmHg 90%
    16:00 +16°C° 0.2 mm 3 mps 747 mmHg 92%
    17:00 +14°C° 0.2 mm 3 mps 748 mmHg 92%
    18:00 +14°C° 0.2 mm 3 mps 748 mmHg 92%
    19:00 +13°C° 0.2 mm 4 mps 749 mmHg 92%
    20:00 +12°C° 0 mm 4 mps 749 mmHg 93%
    21:00 +12°C° 0 mm 4 mps 750 mmHg 94%
    22:00 +11°C° 0 mm 3 mps 750 mmHg 94%
    23:00 +10°C° 0 mm 4 mps 751 mmHg 94%
    Show more